User: anonymous   Login
Location: Unspecified
(0.0000°N, 0.0000°E)
Time: 02:11:11
(UTC+00:00)
Language:

Nova 2 - Orbit

View from above orbital plane
View from above orbital plane
View from above satellite
View from above satellite

Ground track
Ground track

The orbit data is extracted from the following two-line orbital elements,

1 19223U 88052A   18110.43165056 +.00000026 +00000-0 +41453-4 0  9990
2 19223 089.9605 085.8605 0031601 147.4845 007.0672 13.22668053440200
Epoch (UTC): 20 April 2018 10:21:34
Eccentricity: 0.0031601
inclination: 89.9605°
perigee height: 1150 km
apogee height: 1198 km
right ascension of ascending node: 85.8605°
argument of perigee: 147.4845°
revolutions per day: 13.22668053
mean anomaly at epoch: 7.0672°
orbit number at epoch: 44020

The dashed part of the orbit path shows where the satellite is in the earth's shadow,  

DLR